• MPC Preparation (Info)

  • MPEC 2016-C94 : 2016 CB32

    The following Minor Planet Electronic Circular may be linked-to from your own Web pages, but must not otherwise be redistributed electronically.

    A form allowing access to any MPEC is at the bottom of this page.


    Read MPEC 2016-C93 Read MPEC 2016-C95


    M.P.E.C. 2016-C94                                Issued 2016 Feb. 8, 16:39 UT
    
         The Minor Planet Electronic Circulars contain information on unusual
             minor planets and routine data on comets.  They are published
        on behalf of Division F of the International Astronomical Union by the
              Minor Planet Center, Smithsonian Astrophysical Observatory,
                              Cambridge, MA 02138, U.S.A.
    
                 Prepared using the Tamkin Foundation Computer Network
    
                                  MPC@CFA.HARVARD.EDU
                URL https://www.minorplanetcenter.net/    ISSN 1523-6714
    
                                       2016 CB32
    
    Observations:
         K16C32B* C2016 02 05.48966 11 13 26.019+02 54 52.07         21.1 wLEC094F51
         K16C32B  C2016 02 05.50145 11 13 25.346+02 54 57.19         21.3 wLEC094F51
         K16C32B  C2016 02 05.51328 11 13 24.657+02 55 01.83         21.4 wLEC094F51
         K16C32B  C2016 02 05.52517 11 13 23.972+02 55 07.10         21.2 wLEC094F51
         K16C32B KC2016 02 06.47053 11 12 31.18 +03 01 49.0          21.5 RoEC094291
         K16C32B KC2016 02 06.47513 11 12 30.92 +03 01 50.9          21.6 RoEC094291
         K16C32B KC2016 02 06.47973 11 12 30.64 +03 01 52.9          21.4 RoEC094291
         K16C32B  C2016 02 07.46539011 11 34.38 +03 09 03.4          21.3 VtEC094H01
         K16C32B KC2016 02 07.46589 11 11 34.34 +03 09 03.4          21.8 RoEC094291
         K16C32B  C2016 02 07.46946511 11 34.13 +03 09 05.3          21.3 VtEC094H01
         K16C32B KC2016 02 07.47050 11 11 34.10 +03 09 05.8          21.4 RoEC094291
         K16C32B KC2016 02 07.47509 11 11 33.82 +03 09 08.0          21.4 RoEC094291
         K16C32B  C2016 02 07.48489611 11 33.23 +03 09 11.9          21.3 VtEC094H01
         K16C32B  C2016 02 07.49235411 11 32.76 +03 09 15.2          21.6 VtEC094H01
         K16C32B KC2016 02 08.59090 11 10 28.76 +03 17 35.8                tEC094474
         K16C32B KC2016 02 08.59793 11 10 28.36 +03 17 39.4          21.4 RtEC094474
         K16C32B KC2016 02 08.60496 11 10 27.91 +03 17 42.4          21.2 RtEC094474
    
    Observer details:
    291 LPL/Spacewatch II.  Observer M. T. Read.  1.8-m f/2.7 reflector + CCD.
    474 Mount John Observatory, Lake Tekapo.  Observers A. C. Gilmore,
        P. M. Kilmartin.  Measurer P. M. Kilmartin.  1.0-m f/7.7 reflector + CCD.
    F51 Pan-STARRS 1, Haleakala.  Observers B. Gibson, T. Goggia, N. Primak,
        A. Schultz, M. Willman.  Measurers K. Chambers, S. Chastel, L. Denneau,
        H. Flewelling, M. Huber, E. Lilly, E. Magnier, R. Wainscoat, C. Waters,
        R. Weryk.  1.8-m Ritchey-Chretien + CCD.
    H01 Magdalena Ridge Observatory, Socorro.  Observers W. H. Ryan, E. V. Ryan.
        Measurer W. H. Ryan.  2.4-m f/8.9 reflector + CCD.
    
    Orbital elements:
    2016 CB32                                                Earth MOID = 0.2591 AU
    Epoch 2016 Jan. 13.0 TT = JDT 2457400.5                 MPC
    M  24.12956              (2000.0)            P               Q
    n   0.18669376     Peri.  242.30954     +0.50439809     -0.86346870
    a   3.0319091      Node   177.39623     +0.80753037     +0.47086239
    e   0.5898039      Incl.    2.63485     +0.30574052     +0.18086019
    P   5.28           H   18.6           G   0.15           U   8
    Residuals in seconds of arc
    160205 F51  0.1+  0.1-    160206 291  0.3+  0.2-    160207 H01  0.4+  0.1-
    160205 F51  0.2+  0.1+    160207 H01  0.1+  0.0     160207 H01  0.1+  0.0
    160205 F51  0.1+  0.3-    160207 291  0.4-  0.4-    160208 474  0.0   0.3-
    160205 F51  0.2+  0.0     160207 H01  0.0   0.1+    160208 474  0.5+  0.1+
    160206 291  0.3+  0.1-    160207 291  0.2+  0.1-    160208 474  0.3+  0.0
    160206 291  0.4+  0.2-    160207 291  0.1+  0.1+
    
    Ephemeris:
    2016 CB32                a,e,i = 3.03, 0.59, 3                   q = 1.2437
    Date    TT    R. A. (2000) Decl.     Delta      r     Elong.  Phase     V
    2016 01 09    11 25 54.4 +01 11 12   1.1968  1.8543   116.2    28.4    21.6
    ...
    2016 01 24    11 22 30.6 +01 43 50   1.1586  1.9623   132.5    21.7    21.4
    ...
    2016 02 01    11 17 15.8 +02 25 21   1.1501  2.0200   142.0    17.5    21.3
    ...
    2016 02 07    11 12 01.4 +03 05 42   1.1514  2.0633   149.6    14.0    21.3
    2016 02 08    11 11 03.6 +03 13 04   1.1524  2.0705   150.9    13.4    21.3
    2016 02 09    11 10 04.4 +03 20 36   1.1536  2.0776   152.2    12.8    21.3
    ...
    2016 02 15    11 03 46.7 +04 08 28   1.1657  2.1207   160.0     9.2    21.2
    ...
    2016 02 23    10 54 48.9 +05 16 23   1.1962  2.1779   170.5     4.3    21.1
    ...
    2016 03 09    10 38 47.5 +07 18 15   1.3001  2.2841   169.8     4.4    21.4
    
    A. U. Tomatic                (C) Copyright 2016 MPC           M.P.E.C. 2016-C94
    

    Read MPEC 2016-C93 Read MPEC 2016-C95


    MPEC number:

    Enter an MPEC number in one of the following forms:

    • 1997-B01 (the full form)
    • J97B01 (the packed version of the full form)
    • B01 (the abbreviated form)